カタログに戻る

COSMOS 252 DEB

運用中LEO
NORAD 3559·DEBRIS·🇷🇺 Russia

打ち上げ Nov 1, 1968 から Baikonur Cosmodrome

Loading…

次のパス (今後24時間)

TLE

最新Source: Space-Track

元期: Sep 14, 2026, 12:07 UTC

1 03559U 68097M   26257.50505801  .00000946  00000-0  22478-3 0  9993
2 03559  62.2951  88.2020 0438388 283.7351  71.5277 14.14690003856525

AllMySatでCOSMOS 252 DEBをリアルタイム追跡

Download on the App Store